Find Tsikada

NORAD ID: 23463 Int'l Des: 1995-002 Owner: VMFR Country: RU operational
LEOCIRCULARPOLAR

Aktuelle Ansicht

3D-Globus wird geladen...

Über Tsikada

Beschreibung wird geladen...

Nächste Überflüge

Passes for default location (London). Set your location on the main map for personalized predictions.

Höhenverlauf

Loading altitude history...

Zweizeiliger Elementsatz

1 23463U 95002A 26150.08845470 .00000084 00000-0 74163-4 0 9991
2 23463 82.9289 29.3062 0038612 187.9116 326.9570 13.72733316569821
Epoch: 30. Mai 2026 • Age: 7 hours

Aktueller Status

Höhe 1013.7 km
Geschwindigkeit 7.35 km/s
Subsatellitenpunkt 71.78°N, 32.36°E
Startdatum 24. Jan. 1995
Alter 31.3 years
Typ other

Technische Details

Klassifizierung Payload
Masse 800.00 kg
Trockenmasse 800.00 kg
Gesamtmasse 800.00 kg
Länge 5.00 m
Durchmesser 2.10 m
Spannweite 17.00 m
Form Cyl + Ant
Hersteller POL
Bus-Typ KAUR-1 11F643
Phasenstatus In Orbit
Besitzer/Staat VMFR/RU

Most Searched